Location: Newark
(25.4800°N, 85.7200°E)
Time: 08:48:14
(UTC+00:00)

SR - All Passes

Search period start: 22 August 2019 00:00
Search period end: 01 September 2019 00:00
Orbit: 578 x 878 km, 66.7° (Epoch: 21 August)

Date Brightness Start Highest point End Pass type
(mag) Time Alt. Az. Time Alt. Az. Time Alt. Az.
22 Aug - 06:32:34 10° SW 06:36:41 46° WNW 06:41:02 10° N daylight
22 Aug - 15:21:08 10° N 15:25:27 22° ENE 15:29:51 10° ESE visible
22 Aug - 17:02:12 10° NW 17:07:36 42° WSW 17:13:07 10° S visible
23 Aug - 05:42:53 10° SSW 05:47:05 63° ESE 05:51:32 10° NNE daylight
23 Aug - 16:12:17 10° NNW 16:18:03 89° NE 16:23:59 10° SSE visible
24 Aug - 04:54:19 10° SSE 04:57:41 23° ESE 05:01:11 10° NE daylight
24 Aug - 06:36:19 10° WSW 06:39:34 20° WNW 06:42:57 10° N daylight
24 Aug - 15:22:59 10° N 15:28:23 42° ENE 15:33:56 10° SE visible
24 Aug - 17:05:59 10° WNW 17:10:11 21° WSW 17:14:25 10° SSW visible
25 Aug - 05:45:37 10° SW 05:49:46 51° WNW 05:54:12 10° NNE daylight
25 Aug - 14:34:23 10° NNE 14:38:34 20° ENE 14:42:49 10° ESE visible
25 Aug - 16:15:16 10° NW 16:20:45 45° WSW 16:26:20 10° S visible
26 Aug - 04:56:01 10° S 05:00:12 57° ESE 05:04:38 10° NNE daylight
26 Aug - 15:25:25 10° NNW 15:31:12 84° ENE 15:37:07 10° SSE visible
27 Aug - 04:07:35 10° SSE 04:10:49 21° ESE 04:14:11 10° ENE daylight
27 Aug - 05:49:15 10° WSW 05:52:38 22° WNW 05:56:12 10° N daylight
27 Aug - 14:36:09 10° N 14:41:31 39° ENE 14:47:00 10° SE visible
27 Aug - 16:18:58 10° WNW 16:23:20 22° WSW 16:27:46 10° SSW visible
28 Aug - 04:58:40 10° SW 05:02:52 56° WNW 05:07:22 10° NNE daylight
28 Aug - 13:47:39 10° NNE 13:51:40 19° ENE 13:55:46 10° ESE visible
28 Aug - 15:28:21 10° NW 15:33:54 48° WSW 15:39:32 10° S visible
29 Aug - 04:09:09 10° S 04:13:18 52° ESE 04:17:43 10° NE daylight
29 Aug - 14:38:33 10° NNW 14:44:21 79° ENE 14:50:15 10° SSE visible
30 Aug - 03:20:51 10° SSE 03:23:56 19° ESE 03:27:09 10° ENE daylight
30 Aug - 05:02:11 10° WSW 05:05:43 24° WNW 05:09:27 10° N daylight
30 Aug - 13:49:20 10° N 13:54:39 37° ENE 14:00:03 10° SE visible
30 Aug - 15:31:57 10° NW 15:36:30 24° WSW 15:41:05 10° SSW visible
31 Aug - 04:11:43 10° SW 04:15:57 61° WNW 04:20:30 10° NNE daylight
31 Aug - 13:00:55 10° NNE 13:04:47 18° ENE 13:08:41 10° E visible
31 Aug - 14:41:26 10° NW 14:47:03 52° WSW 14:52:45 10° S visible
